Deptford, New Jersey, United States
Lat: 39.83N, Lon: 75.13W
Wx Zone: NJZ017
Local Info
Past Weather Observations for Sunday, July 17, 2016

NOTE: This archive is for the closest National Weather Service station to Deptford. Information may differ from the station used for current weather conditions.

Click here for Long-term Archive

Time Weather Temperature Dewpoint Humidity Pressure Winds Precip Visibility
23:54
Mostly Cloudy
81°F / 27°C 70°F / 21°C 70% 30.12 in
(1020 mb)
SW 8.1 mph
(SW 13 kph)
- 10SM
22:54
Partly Cloudy
81°F / 27°C 68°F / 20°C 66% 30.12 in
(1020 mb)
SSE 8.1 mph
(SSE 13 kph)
- 10SM
21:54
Partly Cloudy
82°F / 28°C 66°F / 19°C 58% 30.12 in
(1020 mb)
SW 9.2 mph
(SW 15 kph)
- 10SM
20:54
Partly Cloudy
84°F / 29°C 66°F / 19°C 55% 30.12 in
(1020 mb)
SW 9.2 mph
(SW 15 kph)
- 10SM
19:54
Partly Cloudy
86°F / 30°C 66°F / 19°C 52% 30.12 in
(1020 mb)
SW 9.2 mph
(SW 15 kph)
- 10SM
18:54
Partly Cloudy
88°F / 31°C 61°F / 16°C 40% 30.12 in
(1020 mb)
NW 6.9 mph
(NW 11 kph)
- 10SM
17:54
Partly Cloudy
90°F / 32°C 59°F / 15°C 36% 30.12 in
(1020 mb)
NW 11.5 mph
(NW 19 kph)
- 10SM
16:54
Partly Cloudy
91°F / 33°C 59°F / 15°C 34% 30.09 in
(1019 mb)
W 11.5 mph
(W 19 kph)
- 10SM
15:54
Mostly Cloudy
90°F / 32°C 63°F / 17°C 41% 30.09 in
(1019 mb)
WNW 10.4 mph
(WNW 17 kph)
- 10SM
14:54
Mostly Cloudy
91°F / 33°C 63°F / 17°C 38% 30.09 in
(1019 mb)
SSW 11.5 mph
(SSW 19 kph)
- 10SM
13:54
Partly Cloudy
91°F / 33°C 64°F / 18°C 41% 30.09 in
(1019 mb)
SSW 8.1 mph
(SSW 13 kph)
- 10SM
12:54
Partly Cloudy
90°F / 32°C 64°F / 18°C 43% 30.09 in
(1019 mb)
SSW 8.1 mph
(SSW 13 kph)
- 10SM
11:54
Partly Cloudy
88°F / 31°C 66°F / 19°C 49% 30.12 in
(1020 mb)
Variable 6.9 mph
(Variable 11 kph)
- 10SM
10:54
Partly Cloudy
86°F / 30°C 66°F / 19°C 52% 30.12 in
(1020 mb)
SW 10.4 mph
(SW 17 kph)
- 10SM
09:54
Partly Cloudy
82°F / 28°C 66°F / 19°C 58% 30.12 in
(1020 mb)
NW 5.8 mph
(NW 9 kph)
- 10SM
08:54
Partly Cloudy
81°F / 27°C 66°F / 19°C 62% 30.12 in
(1020 mb)
Variable 4.6 mph
(Variable 7 kph)
- 10SM
07:54
Partly Cloudy
79°F / 26°C 66°F / 19°C 65% 30.12 in
(1020 mb)
SW 3.5 mph
(SW 6 kph)
- 10SM
06:54
Partly Cloudy
75°F / 24°C 66°F / 19°C 74% 30.12 in
(1020 mb)
SSW 4.6 mph
(SSW 7 kph)
- 10SM
05:54
Partly Cloudy
73°F / 23°C 68°F / 20°C 83% 30.09 in
(1019 mb)
SSE 3.5 mph
(SSE 6 kph)
- 10SM
04:54
Partly Cloudy
73°F / 23°C 66°F / 19°C 78% 30.09 in
(1019 mb)
SSW 4.6 mph
(SSW 7 kph)
- 10SM
03:54
Mostly Cloudy
73°F / 23°C 66°F / 19°C 78% 30.06 in
(1018 mb)
W 6.9 mph
(W 11 kph)
- 10SM
02:54
Mostly Cloudy
73°F / 23°C 66°F / 19°C 78% 30.06 in
(1018 mb)
W 6.9 mph
(W 11 kph)
- 10SM
01:54
Mostly Cloudy
75°F / 24°C 66°F / 19°C 74% 30.06 in
(1018 mb)
W 6.9 mph
(W 11 kph)
- 10SM
00:54
Mostly Cloudy
75°F / 24°C 66°F / 19°C 74% 30.06 in
(1018 mb)
WNW 8.1 mph
(WNW 13 kph)
- 10SM
Time Weather Temperature Dewpoint Humidity Pressure Winds Precip Visibility


Weather for websites

WeatherForYou.com, LLC is not responsible for any damages or problems caused by this service. Current weather conditions are obtained from the closest station including government and personal stations which may have varying degrees of accuracy. Weather forecasts are derived from the NOAA NDFD. Like all things, this site belongs to Jesus Christ... He just trusts us to maintain it. If you have any questions or comments email webmaster@weatherforyou.com

Copyright © 2016, WeatherForYou.com LLC. All rights reserved.